DW6277 Weather Reports


Display with metric or nautical units.
time (UTC)temp
F
wind
direction
speed
MPH
gust
MPH
rain 1hr
in
rain 24hr
in
rain mn
in
humidity
%
barometer
mb
20260505065243 69 165 0.0 0.0 0.00 0.14 0.07 64 1016.9
20260505064226 70 165 0.0 0.0 0.00 0.14 0.07 64 1016.8
20260505063204 70 165 0.0 0.0 0.00 0.14 0.07 64 1016.8
20260505061042 70 132 1.0 5.0 0.00 0.14 0.07 63 1016.8
20260505060032 70 134 2.0 6.0 0.00 0.14 0.07 62 1016.8
20260505053855 70 135 2.0 4.0 0.00 0.14 0.07 64 1016.5
20260505052823 70 146 2.0 5.0 0.00 0.14 0.07 63 1016.6
20260505051756 70 133 2.0 5.0 0.00 0.14 0.07 63 1016.4
20260505050816 70 141 2.0 6.0 0.00 0.14 0.07 64 1016.5
20260505041747 77 300 0.0 5.0 0.00 0.14 0.07 51 1016.3
20260505040750 76 78 1.0 4.0 0.00 0.14 0.07 52 1016.2
20260505035758 75 319 1.0 7.0 0.00 0.14 0.07 55 1016.1
20260505034822 75 337 1.0 7.0 0.00 0.14 0.07 55 1016.1
20260505033809 74 275 2.0 7.0 0.00 0.14 0.07 56 1016.3
20260505032800 75 300 1.0 4.0 0.00 0.14 0.07 56 1016.2
20260505031759 73 262 1.0 4.0 0.00 0.14 0.07 59 1016.3
20260505030743 72 208 2.0 6.0 0.00 0.14 0.07 58 1016.4
20260505025710 72 222 1.0 6.0 0.00 0.14 0.07 59 1016.7
20260505024722 71 309 2.0 7.0 0.00 0.14 0.07 59 1016.8
20260505023708 71 316 2.0 7.0 0.00 0.14 0.07 60 1017.0
20260505022710 71 304 1.0 5.0 0.00 0.14 0.07 60 1017.1
20260505021658 71 314 2.0 5.0 0.00 0.14 0.07 61 1017.1
20260505020637 71 311 1.0 4.0 0.00 0.14 0.07 61 1017.4
20260505015652 70 52 1.0 5.0 0.00 0.14 0.07 62 1017.4
20260505014633 70 316 1.0 5.0 0.00 0.14 0.07 62 1017.7
20260505013614 70 311 2.0 6.0 0.00 0.14 0.07 65 1017.6
20260505012555 70 325 1.0 6.0 0.00 0.14 0.07 65 1017.8
20260505011605 69 250 2.0 6.0 0.00 0.14 0.07 63 1017.9
20260505010558 69 323 1.0 6.0 0.00 0.14 0.07 61 1017.9
20260505005621 69 330 2.0 5.0 0.00 0.14 0.07 62 1018.1
20260505004614 68 263 1.0 5.0 0.00 0.14 0.07 63 1018.1
20260505003545 68 273 1.0 4.0 0.00 0.14 0.07 64 1018.3
20260505002543 68 311 0.0 4.0 0.00 0.14 0.07 64 1018.5
20260505001547 68 260 0.0 3.0 0.00 0.14 0.07 64 1018.5
20260504235450 68 232 2.0 6.0 0.00 0.14 0.07 64 1018.3
20260504234421 68 236 1.0 5.0 0.00 0.14 0.07 66 1018.4
20260504233428 68 238 1.0 5.0 0.00 0.14 0.07 66 1018.5
20260504232416 67 236 1.0 5.0 0.00 0.14 0.07 70 1018.7
20260504231346 66 271 1.0 6.0 0.00 0.14 0.07 74 1018.5
20260504230353 66 229 1.0 8.0 0.00 0.14 0.07 76 1018.6
20260504225344 66 330 1.0 8.0 0.00 0.14 0.07 77 1018.7
20260504224342 66 278 1.0 5.0 0.00 0.14 0.07 80 1018.6
20260504222135 64 193 2.0 6.0 0.00 0.14 0.07 86 1018.5
20260504215945 62 229 1.0 7.0 0.00 0.14 0.07 89 1018.1
20260504214922 61 184 1.0 6.0 0.00 0.14 0.07 91 1018.0
20260504213909 61 212 1.0 4.0 0.00 0.14 0.07 92 1017.7
20260504211741 60 233 0.0 3.0 0.00 0.14 0.07 94 1017.2
20260504204551 62 302 0.0 0.0 0.00 0.14 0.07 96 1016.8
20260504203555 62 302 0.0 3.0 0.00 0.14 0.07 96 1016.6
20260504201358 62 232 1.0 5.0 0.00 0.14 0.07 96 1016.1
20260504200352 62 245 0.0 3.0 0.00 0.14 0.07 96 1016.0
20260504195340 63 255 0.0 2.0 0.00 0.13 0.06 96 1015.9
20260504194317 64 244 0.0 0.0 0.00 0.13 0.06 97 1016.0
20260504193306 64 337 0.0 0.0 0.00 0.13 0.06 97 1015.7
20260504192306 64 337 0.0 2.0 0.00 0.13 0.06 97 1015.5
20260504191259 64 266 0.0 1.0 0.00 0.13 0.06 97 1015.4
20260504190324 64 269 0.0 4.0 0.00 0.13 0.06 97 1015.3
20260504185317 64 283 0.0 0.0 0.00 0.13 0.06 97 1015.3
20260504182037 65 306 0.0 2.0 0.00 0.13 0.06 97 1015.2
20260504181015 65 287 1.0 5.0 0.00 0.13 0.06 97 1015.1
20260504175949 65 335 2.0 6.0 0.00 0.13 0.06 97 1015.2
20260504174915 65 298 2.0 7.0 0.00 0.13 0.06 96 1015.1
20260504173851 65 321 2.0 7.0 0.00 0.13 0.06 96 1015.0
20260504172820 65 309 2.0 9.0 0.00 0.13 0.06 96 1014.8
20260504171824 65 333 3.0 9.0 0.00 0.13 0.06 96 1015.1
20260504170839 65 328 3.0 7.0 0.00 0.13 0.06 96 1015.2
20260504150251 65 310 1.0 4.0 0.00 0.07 0.00 96 1015.0
20260504140953 66 0 1.0 4.0 0.00 0.07 0.00 96 1014.5
20260504110546 67 319 0.0 2.0 0.00 0.04 0.04 91 1015.7
20260504081607 73 300 0.0 4.0 0.00 0.00 0.00 74 1014.8
20260504080600 74 312 0.0 3.0 0.00 0.00 0.00 73 1014.8